Wind_Speed
18 18 18 18 19 19 20 20 20 20 21 21 21 22 22 23 23 24 24 24 25 25 26 26 27 28 28 29 29 29 30 30 31 31 31 31 29 27 26 26 27 28 29 29 30 30 31 32 33 35 37 39 41 43 44 43 41 39 37 36 34 32 33 35 37 39 40 40 38
18 18 18 19 19 20 20 21 21 21 21 22 22 22 23 23 24 24 25 25 26 26 27 27 28 28 29 30 30 31 31 31 31 31 31 31 30 29 28 28 28 29 30 31 31 31 31 31 32 32 34 36 37 39 42 44 43 40 38 37 35 34 33 33 35 37 39 39 38
19 18 18 19 20 20 21 22 22 22 23 23 23 23 23 24 24 24 25 25 26 27 27 28 28 29 30 30 31 31 31 31 31 31 32 32 32 31 30 30 30 30 31 31 31 32 32 31 32 32 32 34 34 35 38 41 43 44 42 38 37 35 32 31 32 34 35 36 36
19 19 19 20 21 21 22 23 23 24 24 24 24 24 24 24 24 25 25 26 27 27 27 28 30 31 31 31 32 32 32 32 33 33 34 34 33 33 32 32 31 31 31 31 32 33 34 34 33 32 32 33 34 34 34 36 39 41 42 41 39 36 34 32 31 31 32 32 33
20 20 21 22 22 23 24 24 24 25 25 24 25 25 25 25 25 26 26 27 27 28 28 30 31 32 33 33 33 33 34 34 34 34 34 35 34 33 32 31 31 32 33 34 34 35 36 36 34 33 33 33 34 35 35 35 36 37 39 40 39 37 36 35 32 31 30 30 30
21 22 23 24 24 25 25 25 25 25 26 25 25 25 25 25 26 26 27 27 28 29 30 31 32 33 34 34 34 34 35 35 35 34 34 34 34 33 32 32 32 32 33 34 35 37 37 37 36 35 34 33 34 35 36 35 35 35 36 37 38 36 34 34 33 32 32 30 29
23 23 24 25 26 26 27 27 27 27 26 26 26 26 26 27 27 28 28 29 29 30 30 31 31 32 32 33 34 34 35 35 36 36 35 35 35 34 34 34 33 33 34 35 35 36 36 36 35 35 35 35 34 35 35 34 34 34 35 36 36 35 35 33 32 32 32 32 31
24 24 25 26 27 27 27 27 27 27 27 27 27 27 28 28 28 28 29 28 28 28 29 29 30 31 32 33 34 35 36 36 37 36 36 36 36 36 36 36 36 35 34 34 34 34 33 33 34 35 34 33 34 35 35 35 34 34 34 35 35 35 34 33 31 31 31 32 32
25 26 26 27 27 27 28 28 28 28 28 28 28 28 29 29 29 28 28 27 27 28 28 29 30 31 32 33 34 35 36 36 37 37 36 36 36 37 37 37 36 34 33 32 32 32 32 32 33 34 33 32 33 35 36 36 35 34 34 33 33 34 34 33 31 30 30 30 31
26 27 27 27 27 28 28 28 28 28 29 29 29 29 29 29 29 28 27 27 27 27 28 29 30 31 32 33 33 34 35 35 36 36 36 36 36 37 38 37 35 33 32 30 30 30 30 31 33 34 34 33 33 34 35 36 35 35 34 32 31 31 32 32 30 29 28 29 30
27 28 28 28 28 28 28 28 28 28 29 29 29 29 29 29 29 28 27 27 27 27 28 29 29 30 31 32 32 33 33 34 35 35 35 35 36 37 37 36 34 33 31 30 30 29 29 30 32 34 34 33 33 32 33 34 34 35 34 31 30 30 30 30 29 28 28 30 31
28 28 28 28 28 28 29 29 29 29 29 29 29 30 29 29 29 28 28 27 27 27 28 28 29 29 30 30 31 31 32 33 34 35 35 35 35 36 37 37 35 34 32 31 29 28 28 29 31 33 33 32 31 30 30 31 31 32 32 31 30 30 30 30 30 30 31 32 33
29 29 29 29 29 29 29 29 29 29 29 29 29 29 29 29 29 28 28 27 27 27 27 28 28 29 29 30 30 31 31 32 33 34 35 36 36 37 37 37 36 35 33 31 29 28 28 29 31 33 33 32 31 30 29 30 29 29 30 30 30 31 31 32 33 34 34 35 35
29 29 29 30 30 30 30 29 29 29 29 29 29 29 29 29 29 28 27 27 27 27 27 28 28 28 28 29 30 31 31 32 33 34 36 37 37 37 37 36 36 34 33 31 30 29 29 30 32 33 33 32 31 30 29 29 29 29 29 30 31 32 33 33 35 36 38 38 37
29 30 30 30 30 30 30 30 29 29 29 29 30 30 30 30 29 28 27 27 28 28 28 28 28 28 29 29 30 31 32 32 33 34 35 36 37 37 36 36 36 35 33 31 31 30 29 31 33 34 33 32 31 30 30 30 29 29 29 30 32 34 35 35 36 37 38 40 39
30 30 31 31 31 31 30 30 30 29 29 30 30 31 31 31 30 29 29 28 28 29 29 29 29 30 31 31 31 32 32 32 33 34 34 35 36 36 36 36 36 36 35 33 31 31 31 31 33 34 34 32 31 30 30 30 30 30 30 30 32 34 36 37 37 37 38 39 39
31 31 32 32 32 32 31 31 30 30 30 31 31 32 32 32 31 30 30 29 29 29 30 31 31 32 32 33 33 32 32 33 33 33 33 34 35 36 37 37 37 37 37 36 33 32 32 33 34 34 34 32 31 30 30 30 30 30 29 29 30 32 35 38 39 39 38 38 39
32 32 32 32 32 32 32 32 31 31 32 32 32 32 32 32 32 31 31 31 31 31 31 32 33 33 33 33 33 33 33 33 33 33 34 34 35 36 37 38 37 38 38 37 35 33 33 34 34 34 33 32 31 30 30 30 30 30 29 29 29 30 32 35 38 38 38 38 38
32 33 33 33 33 32 32 32 32 32 33 33 33 33 33 33 33 33 33 33 33 33 33 33 33 34 34 34 34 34 34 34 34 35 35 35 36 36 37 38 38 38 38 37 35 34 33 34 34 34 32 31 30 30 30 30 30 30 29 29 28 28 30 31 34 35 37 38 38
33 33 33 33 33 33 32 32 33 33 33 34 34 34 34 34 34 34 34 34 34 34 33 33 34 35 35 35 35 35 34 34 35 36 36 36 36 36 37 37 37 38 38 37 36 34 34 34 34 33 32 31 30 30 30 30 30 30 29 28 28 28 29 29 30 32 33 35 36
34 34 34 33 33 33 33 33 33 34 34 35 35 35 35 35 35 35 35 35 35 35 35 34 35 35 35 36 35 36 35 35 35 36 36 37 37 37 37 37 37 37 37 37 36 35 34 34 33 33 32 31 30 30 30 30 30 30 29 29 28 28 29 29 30 30 31 32 33
34 34 34 34 33 33 34 34 35 35 35 35 35 35 35 35 35 36 36 35 35 36 36 36 36 35 35 35 35 36 36 36 36 36 37 38 38 38 37 36 36 36 37 37 36 36 35 33 33 32 31 31 31 30 30 30 30 30 29 29 28 28 28 29 29 30 31 31 32
34 34 34 34 34 34 35 35 36 36 36 36 36 36 36 36 36 36 36 35 35 36 37 37 36 35 34 34 35 36 37 37 38 38 39 38 39 39 38 37 37 36 36 36 37 36 35 33 32 31 31 30 31 30 30 30 30 30 29 29 28 28 28 29 29 30 31 31 31
35 34 34 34 34 35 36 36 36 36 36 36 36 36 36 35 36 36 35 35 35 35 36 37 36 36 36 35 35 36 36 38 38 39 39 39 39 39 38 38 37 37 36 35 36 35 33 32 31 30 31 31 30 30 30 29 30 30 30 29 29 29 29 29 29 30 31 31 30
35 35 35 35 35 36 36 36 36 36 36 36 36 35 35 35 35 35 35 35 35 35 36 36 37 37 37 36 36 36 36 37 38 39 39 40 40 39 38 37 37 36 35 35 36 37 36 34 32 31 31 31 30 30 29 29 29 30 30 30 30 30 29 29 30 31 31 31 30
36 35 35 35 36 36 36 36 36 36 36 36 35 35 35 35 35 35 35 35 36 36 36 36 37 37 36 35 36 37 37 36 37 38 38 38 38 39 38 37 35 34 34 35 36 37 37 36 35 34 33 32 31 30 29 28 29 30 30 31 31 31 31 31 31 31 30 30 30
36 35 35 35 36 36 36 36 36 36 36 35 35 35 35 35 35 35 35 36 36 37 37 37 37 36 35 35 35 36 35 35 36 36 37 37 38 38 38 37 36 35 34 35 36 36 37 38 38 37 35 34 32 31 30 29 30 30 30 31 31 32 33 32 31 31 30 29 30
35 35 35 35 36 36 36 36 36 36 36 35 35 35 35 35 35 35 35 36 36 36 36 36 36 34 32 32 32 33 34 35 35 35 36 36 37 37 37 37 37 37 37 38 37 37 38 40 40 39 37 35 33 32 32 31 31 31 31 31 31 32 33 32 32 32 31 30 30
36 35 35 35 35 36 36 36 36 35 35 35 35 35 34 34 34 35 35 35 35 35 35 35 35 33 31 32 33 34 35 36 37 36 36 36 37 38 38 38 38 39 40 39 38 38 40 43 42 40 38 36 33 31 31 31 31 30 30 30 30 31 32 32 31 31 32 31 31
36 35 35 35 35 35 35 35 35 35 35 34 34 34 34 34 34 35 35 36 36 36 36 35 34 33 33 34 35 35 35 36 37 37 36 36 36 37 38 39 40 41 41 40 38 40 42 44 43 41 38 36 33 31 30 30 30 30 29 29 30 31 31 31 32 32 32 32 32
35 35 35 35 34 34 35 35 35 35 35 34 34 34 34 35 35 36 36 36 36 36 36 35 35 35 35 36 35 35 36 36 36 36 36 36 36 37 39 41 43 43 42 38 38 40 43 43 43 41 38 35 32 30 29 29 29 29 28 28 29 30 31 30 31 32 33 34 34
35 34 34 34 34 34 34 35 35 35 35 35 34 35 35 36 36 36 37 37 37 37 36 36 37 36 36 37 36 36 37 37 37 36 36 35 36 38 40 42 42 40 35 32 34 39 41 42 41 39 37 34 31 29 28 28 28 27 27 28 29 30 30 30 31 33 34 35 35
34 33 33 33 34 34 35 35 35 35 35 35 35 35 36 37 37 38 38 37 37 37 36 36 37 37 36 36 36 37 37 38 37 37 36 36 37 38 40 41 35 28 24 26 30 35 37 38 38 37 35 32 29 27 27 27 26 25 26 27 28 29 30 30 32 33 35 35 35
33 33 33 33 34 34 35 35 35 35 35 35 35 36 37 37 38 38 38 38 37 37 37 37 36 36 36 35 36 36 37 37 36 35 35 36 37 38 38 34 24 18 19 23 28 32 34 36 37 35 33 30 28 26 26 25 25 24 25 26 26 27 28 30 32 34 34 34 34
33 33 33 33 34 34 35 35 35 35 35 35 36 37 37 38 38 38 38 38 38 38 37 36 36 35 35 35 35 36 36 35 35 35 35 36 37 37 33 26 19 18 21 26 30 33 35 36 36 34 32 30 28 27 26 26 25 25 26 26 26 27 28 29 31 33 33 33 33
33 33 33 34 34 34 34 35 35 35 36 36 37 37 38 38 38 38 38 38 38 38 37 36 35 34 34 34 35 35 34 34 34 34 35 36 36 34 28 21 18 21 26 31 34 35 36 37 36 34 32 30 29 28 27 27 26 26 26 26 26 27 28 29 30 31 31 31 32
33 33 33 34 34 34 35 35 35 36 36 37 37 38 38 39 39 38 38 37 37 37 36 36 34 34 33 34 34 35 34 34 33 34 35 37 36 30 22 19 22 27 32 36 37 38 38 38 37 35 34 32 30 29 29 28 27 27 27 27 27 27 28 28 28 28 29 29 31
33 33 33 34 34 35 35 36 36 36 37 38 38 38 38 38 38 38 37 36 36 36 36 35 35 34 34 35 35 35 36 35 35 35 37 39 35 25 20 23 27 31 35 38 39 40 40 39 38 37 35 34 32 31 30 28 27 27 27 26 27 27 27 26 26 26 27 29 31
33 33 33 34 35 36 36 37 37 37 37 38 38 38 38 38 37 37 37 36 36 36 36 35 35 35 35 36 35 35 36 36 36 37 38 37 28 21 25 29 31 33 37 40 42 42 42 40 39 38 37 36 34 32 31 29 28 27 26 26 25 25 25 24 24 25 26 29 31
33 34 34 35 35 36 36 37 37 37 37 38 38 38 38 38 37 37 37 36 35 35 35 35 36 36 35 35 35 35 35 35 36 37 36 29 21 25 31 32 32 35 38 41 43 44 43 41 39 38 37 36 34 32 30 29 27 26 25 24 24 24 23 23 24 25 27 29 31
34 34 35 35 36 36 36 37 37 38 38 38 38 38 38 38 37 36 35 34 35 34 34 34 35 36 36 35 33 32 33 33 34 32 24 17 23 30 32 33 34 36 38 41 44 44 43 41 39 38 36 34 32 31 29 28 27 26 25 24 24 24 24 24 24 26 27 29 29
Wind_Direction
308 307 306 306 306 306 305 304 303 303 302 302 301 301 301 300 299 298 297 296 294 293 292 291 291 291 292 292 293 293 293 293 294 295 296 298 297 294 290 287 286 286 287 287 286 285 285 285 285 284 281 275 267 262 259 258 257 253 245 238 236 236 235 233 230 226 223 221 219
306 305 304 305 305 304 304 303 303 303 303 303 302 302 301 300 299 298 296 295 294 293 292 290 289 288 288 289 289 290 290 290 291 292 293 294 295 295 293 290 288 288 287 288 288 287 286 285 284 284 282 279 272 263 258 256 256 254 249 243 240 238 236 234 232 229 226 222 220
306 305 305 305 304 304 303 303 302 302 302 302 301 301 300 299 298 297 295 294 293 293 292 291 290 289 288 288 287 287 287 287 288 288 289 289 290 290 290 290 289 287 287 287 287 286 285 284 283 282 282 280 275 266 259 256 255 254 252 248 244 240 237 234 233 231 228 225 221
308 308 308 307 305 304 302 301 301 300 300 300 300 300 299 299 298 297 296 295 295 294 293 292 292 291 291 290 289 288 286 286 286 286 286 286 286 286 286 286 286 285 285 284 285 285 285 284 282 281 279 279 276 271 264 259 255 252 251 250 247 243 239 235 231 229 228 226 223
310 311 310 309 307 305 303 301 300 299 299 299 299 298 298 297 297 297 297 297 297 296 295 295 294 293 293 292 291 290 288 286 285 284 284 284 284 284 283 283 283 282 282 282 282 283 284 284 282 279 277 277 276 272 268 263 256 251 249 249 248 245 240 235 229 225 225 224 223
312 312 311 309 308 306 304 302 301 299 299 298 297 296 296 296 296 296 297 297 297 297 297 296 296 295 294 293 292 290 289 287 285 283 282 282 282 282 282 282 281 280 280 280 280 281 282 282 280 278 275 274 274 272 269 265 258 251 247 246 247 245 239 232 225 222 221 220 218
311 311 310 309 307 306 304 302 301 300 299 297 296 295 294 294 294 294 295 296 296 297 297 297 297 296 295 294 293 291 290 289 287 284 282 280 279 280 280 281 281 280 279 278 278 278 279 280 278 275 273 272 271 270 268 263 257 251 246 243 243 242 238 230 223 217 214 212 211
310 309 308 307 306 304 303 302 301 300 299 297 295 294 293 293 293 293 294 295 296 296 297 297 297 297 296 296 294 293 292 290 288 286 282 280 278 277 278 279 280 279 278 277 276 277 277 277 275 272 270 269 268 268 266 262 257 250 244 240 239 238 235 229 221 214 209 207 205
309 307 306 305 304 303 302 302 301 300 298 296 295 294 293 292 292 293 293 294 295 296 297 297 297 298 297 296 295 295 293 292 289 287 283 279 277 276 276 277 277 277 276 276 276 276 276 275 272 269 266 264 264 264 263 260 255 249 243 237 233 232 230 226 218 209 204 201 198
307 306 305 303 303 302 302 301 300 299 298 296 295 294 293 292 292 292 292 293 295 296 297 298 298 298 298 297 296 295 294 292 290 288 284 281 278 276 275 274 274 274 275 275 276 277 276 274 270 266 263 260 259 259 258 256 254 249 242 235 227 222 221 218 211 203 196 192 186
306 304 303 302 301 301 301 300 300 299 298 296 295 294 293 292 291 291 291 293 294 296 297 298 299 299 298 297 296 295 294 292 291 289 287 285 281 279 276 274 273 273 273 275 276 276 275 273 268 263 259 256 255 253 252 251 250 246 239 230 220 212 209 206 200 193 186 180 173
305 303 302 301 301 300 300 300 299 298 297 296 295 294 293 292 291 291 291 292 294 295 296 298 298 298 298 297 296 295 294 293 291 290 290 288 287 284 281 277 274 273 272 273 273 273 272 269 265 260 256 252 249 248 247 245 244 239 232 222 212 204 198 193 187 182 176 171 166
304 302 301 301 300 300 300 299 299 298 297 296 296 295 294 293 292 291 292 292 293 294 296 297 298 298 297 297 296 295 294 293 292 291 290 290 290 289 286 282 279 275 273 271 270 269 268 266 262 257 252 248 245 242 241 239 237 231 223 212 202 196 191 184 179 174 170 166 163
303 302 301 300 300 300 299 299 298 298 297 296 296 295 295 294 293 292 291 291 292 294 295 297 297 297 296 296 296 296 295 294 293 291 290 288 289 290 289 287 283 279 275 271 269 267 266 263 259 253 248 244 241 238 236 233 230 224 215 204 195 189 185 179 174 170 167 164 162
301 301 300 300 300 299 299 298 298 298 297 297 296 296 296 295 293 292 291 291 291 293 294 295 295 296 296 296 296 295 295 294 292 290 288 287 287 288 289 288 285 281 277 272 269 267 265 263 258 252 245 240 236 234 231 228 223 218 211 201 193 186 181 178 173 168 166 164 162
300 300 300 299 299 298 298 298 297 297 297 297 296 296 296 295 294 292 291 290 291 292 292 293 293 294 295 295 295 294 294 293 291 289 287 286 285 285 286 286 284 282 278 273 269 267 265 262 258 250 243 237 233 230 227 222 218 213 208 201 193 185 179 176 172 169 167 165 163
300 299 299 298 298 297 297 297 297 297 297 297 297 296 296 295 294 292 291 290 290 291 291 291 292 292 293 293 293 293 293 292 290 288 286 285 284 283 283 283 283 281 278 274 269 265 264 262 257 249 241 235 230 226 222 217 213 209 205 200 193 185 179 174 172 170 168 166 164
299 299 298 297 297 297 297 297 297 297 297 297 297 296 295 294 293 292 291 290 290 290 290 291 291 291 291 291 291 291 291 290 288 286 285 283 282 281 281 280 280 279 277 274 269 264 261 259 255 247 239 232 226 221 217 212 208 205 202 197 192 185 179 174 172 170 168 166 165
299 298 297 297 296 296 297 297 297 298 298 298 297 296 295 294 293 292 291 290 290 290 290 289 289 289 289 289 288 289 288 287 286 284 282 281 280 279 278 278 278 278 276 274 269 263 258 255 251 244 236 228 222 217 212 208 204 201 198 194 189 184 179 174 170 168 166 165 163
298 298 297 296 296 297 297 298 298 298 298 297 297 295 294 293 292 292 291 290 290 290 289 288 288 288 288 287 287 287 286 286 285 283 281 279 278 277 277 276 276 276 275 273 268 261 256 251 246 240 232 224 218 214 209 204 201 198 194 190 186 182 177 173 169 166 164 163 161
298 297 297 297 297 297 298 298 298 298 297 296 295 294 293 293 292 291 291 290 290 289 289 287 287 286 286 286 286 286 286 286 284 281 279 278 277 276 275 274 274 274 273 271 267 261 255 250 243 236 228 219 213 208 204 201 197 194 191 188 184 180 176 172 168 164 162 160 159
298 298 298 298 298 298 298 298 298 297 296 295 294 293 293 292 292 291 290 290 289 289 288 287 286 286 285 285 285 285 286 285 283 280 278 277 276 274 273 272 271 271 271 270 268 263 257 249 241 233 224 214 209 204 200 196 192 189 186 183 180 177 174 170 166 163 160 158 157
299 298 298 298 298 298 298 298 297 296 295 294 294 293 292 292 292 291 290 289 288 288 288 287 287 286 285 284 284 285 284 284 282 281 279 276 274 272 271 269 268 268 268 268 267 263 257 248 238 228 218 209 204 200 195 191 187 182 179 176 174 171 169 165 161 158 156 155 154
299 298 298 298 297 297 297 297 296 296 295 294 294 293 293 292 292 291 290 289 288 287 287 287 287 286 286 285 284 283 283 283 281 281 279 277 274 272 270 268 267 265 264 263 262 259 253 244 233 221 211 204 200 195 191 186 181 178 174 171 167 165 163 161 157 154 152 151 150
298 297 297 297 297 297 297 297 296 296 295 295 294 294 293 293 292 292 291 290 289 288 287 287 287 287 286 285 285 283 282 281 280 280 279 278 276 274 271 269 267 264 262 260 259 256 249 238 224 210 202 197 194 190 186 181 178 175 171 168 164 161 158 156 154 152 150 148 147
297 296 296 296 296 297 297 296 296 296 295 295 294 294 293 293 292 291 290 289 289 288 287 287 287 287 286 285 285 283 282 280 279 278 278 277 276 274 272 270 267 265 263 260 257 252 243 229 216 204 195 191 188 184 180 177 176 173 170 167 163 159 155 151 150 149 148 147 146
296 296 296 297 297 297 297 296 296 296 296 295 295 294 293 293 292 291 290 289 288 288 287 287 287 287 286 285 284 282 281 279 278 277 277 276 275 274 272 269 266 264 262 259 255 246 234 221 208 198 191 186 183 179 176 174 173 171 168 166 163 159 156 152 150 148 147 146 145
298 298 298 298 298 298 297 297 297 296 296 296 295 294 293 292 291 290 289 288 288 288 288 287 287 287 286 284 282 281 280 280 279 278 277 277 276 275 273 270 266 263 260 256 250 238 224 212 201 193 187 183 179 177 175 174 172 171 169 168 165 162 158 154 150 147 145 144 143
300 300 300 300 299 299 298 298 297 297 296 296 295 294 293 292 291 290 289 288 288 288 288 288 287 286 284 283 282 281 281 280 280 279 278 277 276 276 275 273 269 263 258 252 243 228 214 203 196 189 184 180 176 174 173 173 172 170 169 169 167 163 159 156 150 147 145 144 142
302 302 302 302 301 300 299 299 298 298 297 297 296 295 293 292 291 290 289 289 288 288 287 287 287 285 283 282 282 281 281 280 279 278 277 276 276 276 275 274 271 266 260 250 235 219 206 197 191 185 180 176 173 171 171 170 170 169 169 168 166 164 160 156 152 149 147 145 143
303 303 303 303 303 302 301 300 299 299 298 297 296 295 294 292 291 290 290 289 289 288 288 287 285 284 282 282 281 281 280 279 279 278 277 276 276 276 276 275 272 267 260 246 226 209 198 190 185 180 176 173 172 170 169 168 168 168 168 167 165 163 160 156 153 150 147 145 143
305 305 305 304 304 303 302 301 300 299 298 297 296 295 294 292 291 290 290 289 289 288 288 286 285 284 283 282 281 280 280 279 278 277 276 276 277 278 277 276 271 264 253 235 214 199 190 183 178 174 171 170 168 167 167 165 165 165 164 164 162 161 158 155 153 149 147 145 144
307 307 306 305 304 303 302 301 301 300 299 297 296 294 293 292 292 291 290 290 289 288 287 286 285 284 283 282 281 280 280 279 278 276 276 276 277 278 277 273 266 253 234 213 198 188 180 174 170 167 165 164 162 161 160 159 158 158 158 158 158 157 155 153 150 148 146 145 145
309 308 307 306 305 304 303 302 301 300 299 297 296 294 293 293 292 292 291 290 289 288 287 285 284 283 282 280 280 279 279 278 277 276 276 277 278 278 274 267 252 226 203 190 181 174 168 164 161 159 157 156 153 152 151 150 150 149 150 151 152 152 151 149 147 146 144 144 144
310 309 308 307 306 305 304 303 302 301 299 298 296 295 294 293 292 292 291 290 290 288 287 285 283 282 281 280 278 278 277 276 276 276 276 277 278 276 269 254 229 198 180 173 166 161 157 155 153 151 149 147 145 143 143 142 142 142 143 144 145 146 146 145 144 143 142 142 141
310 310 309 308 307 305 304 303 302 301 299 298 297 296 295 294 293 292 291 290 290 288 287 285 284 283 281 279 279 277 276 276 275 275 277 279 278 272 258 231 198 176 168 163 158 155 153 151 149 147 144 141 138 137 137 136 136 137 138 139 140 142 142 142 142 141 140 140 140
310 310 310 309 308 306 305 304 303 301 299 298 297 296 295 294 293 292 291 291 290 289 287 286 285 283 281 279 279 278 277 276 275 276 278 279 276 264 239 198 173 165 163 159 155 153 152 149 146 143 140 137 135 133 133 132 133 134 135 136 137 139 140 141 141 140 140 140 141
311 311 310 309 308 306 305 303 302 300 299 298 297 296 295 294 293 293 292 291 290 289 288 286 285 282 280 280 280 279 278 277 276 276 278 278 271 249 206 172 162 160 160 158 155 152 150 147 144 141 139 135 134 132 131 131 131 132 133 134 136 138 140 141 141 140 140 141 142
311 311 310 308 307 305 304 302 301 300 299 298 297 296 295 294 293 292 291 290 289 288 286 285 283 282 280 280 280 279 278 277 277 278 278 275 258 217 177 161 158 158 157 156 154 151 148 145 143 140 138 136 134 133 133 133 133 133 134 136 138 141 143 143 142 141 140 141 142
311 310 309 307 306 304 303 302 301 300 299 298 297 296 295 294 292 291 290 289 288 286 285 283 282 281 281 280 279 278 277 277 279 279 276 263 221 180 164 158 157 156 155 154 152 149 146 144 142 140 138 136 135 135 135 135 135 136 138 140 143 146 146 145 142 140 140 141 142
311 310 308 306 305 304 303 302 301 300 299 298 296 295 294 293 292 290 289 288 287 285 283 282 282 281 281 280 278 277 276 277 279 277 264 219 175 163 159 157 155 154 153 152 150 148 145 143 141 140 138 137 137 137 137 137 138 140 143 146 148 148 146 143 140 139 138 139 141
Height
771 771 770 769 768 767 767 765 764 763 762 761 760 759 758 757 755 754 753 752 751 749 748 747 746 745 743 743 742 742 741 740 739 738 737 736 735 733 732 732 731 730 729 728 728 728 727 727 727 726 725 724 724 724 725 725 725 726 725 724 724 723 724 724 724 724 724 724 725
770 769 769 768 767 767 765 764 763 762 761 760 759 758 757 756 755 753 752 751 750 749 747 746 745 744 743 742 741 740 739 738 737 737 736 735 733 732 732 731 730 729 728 727 727 726 726 726 726 725 724 723 722 722 721 722 723 723 723 722 722 721 721 722 722 722 723 723 723
769 768 768 767 766 765 764 763 762 761 760 759 758 757 756 755 753 752 751 750 749 748 747 745 743 742 742 740 739 739 738 737 736 735 734 733 732 731 730 729 728 727 727 726 726 725 724 724 724 723 722 721 720 719 718 718 719 720 720 720 720 719 719 719 720 721 722 722 722
768 767 767 766 765 764 763 762 761 760 759 757 757 755 754 753 752 751 749 748 747 746 745 744 742 741 740 739 738 737 736 735 734 733 732 731 730 729 729 728 727 726 725 725 724 723 722 722 722 721 720 719 719 717 716 715 716 716 717 717 718 717 717 716 717 718 720 720 721
767 766 765 765 764 763 762 761 760 758 757 756 755 754 753 752 751 749 748 747 746 745 743 742 741 739 738 737 736 735 734 733 732 731 730 729 728 727 727 726 725 724 723 723 722 722 721 720 720 719 718 717 716 715 714 713 713 712 713 714 715 715 714 714 714 716 717 719 720
765 765 764 763 762 762 760 759 758 757 756 755 754 752 751 750 749 748 747 746 744 743 742 741 739 738 737 736 734 733 732 731 730 729 728 727 726 725 724 723 722 722 721 720 720 719 719 719 718 717 715 715 713 712 712 712 711 710 710 711 712 712 712 712 712 713 715 717 718
764 763 762 762 761 760 759 758 757 755 754 753 752 751 750 749 748 747 746 744 743 742 740 739 738 736 735 734 732 731 730 729 728 727 726 725 723 722 722 721 720 719 718 718 717 717 716 716 716 714 712 712 711 710 709 709 708 707 707 708 709 710 711 711 710 711 712 713 715
763 762 762 761 760 758 757 756 755 754 753 752 750 749 748 747 746 745 744 743 742 741 739 738 737 735 734 732 731 730 728 727 726 725 723 722 721 720 719 718 717 717 716 715 714 714 714 714 713 712 710 709 708 707 707 707 707 706 705 705 705 707 709 709 709 709 709 710 712
762 761 760 759 758 757 756 755 753 752 751 750 748 747 747 745 744 743 742 741 740 739 738 737 735 734 733 731 730 728 727 725 724 722 721 720 719 717 717 716 715 714 713 712 712 711 711 711 711 709 708 707 706 704 704 705 705 704 703 702 702 704 706 707 707 706 707 708 710
761 760 759 757 756 755 754 753 752 751 749 748 747 746 745 743 742 742 741 739 738 737 736 735 734 733 731 730 728 727 725 724 722 720 719 717 716 715 714 713 712 711 710 710 709 709 708 708 708 707 706 705 704 703 702 702 703 702 702 701 700 701 703 704 704 704 705 707 709
759 758 757 756 755 753 752 751 750 749 747 746 745 743 742 741 740 739 738 737 737 735 734 733 732 731 730 728 727 725 724 722 720 719 717 715 713 712 711 710 709 709 708 707 707 707 706 705 705 705 703 702 702 701 701 700 701 701 700 699 698 698 700 701 701 702 702 705 706
758 757 755 754 753 752 750 749 748 747 745 744 742 742 740 739 738 737 736 735 734 733 732 732 731 730 728 727 725 724 722 721 719 717 715 713 712 710 709 707 707 706 705 705 705 704 704 703 703 702 701 700 700 699 699 699 699 699 698 697 697 696 697 697 698 699 701 702 704
756 755 753 752 751 750 748 747 746 745 743 742 741 739 738 737 736 735 734 733 732 731 730 729 729 728 727 725 724 722 721 719 717 716 714 712 710 708 707 706 704 703 702 702 702 702 701 701 700 700 699 698 697 697 697 697 697 697 697 695 695 694 694 695 695 697 698 699 701
754 753 752 750 749 748 747 745 744 742 741 740 738 737 736 735 734 733 732 731 730 729 728 727 727 726 724 723 722 720 719 717 716 714 712 710 708 707 705 704 702 701 700 699 699 699 699 698 698 697 697 696 695 695 695 695 696 696 695 694 692 692 692 692 693 693 695 697 698
752 751 750 748 747 746 744 743 742 740 739 738 737 735 734 733 732 731 730 729 727 727 726 725 724 723 722 721 720 718 717 716 714 712 710 708 707 705 703 702 700 699 698 697 696 696 696 696 696 695 694 693 692 692 692 693 693 694 693 692 691 690 689 690 691 691 692 693 695
750 749 747 746 745 743 742 741 740 738 737 736 734 733 732 731 730 729 728 726 725 724 724 723 722 721 720 718 717 716 715 713 712 710 708 706 704 703 701 699 698 697 696 695 694 693 692 692 693 693 692 690 690 690 690 691 691 692 691 691 689 688 687 687 689 689 690 690 692
748 747 745 744 742 741 740 739 737 736 735 734 732 732 730 729 728 727 725 724 723 722 721 720 719 718 717 716 715 714 713 711 709 707 706 704 702 701 699 697 696 695 694 692 691 690 689 690 690 690 689 688 687 687 688 688 689 689 690 689 689 687 686 685 686 687 688 689 690
746 744 743 742 740 739 738 737 735 734 733 732 731 729 728 727 726 724 723 722 721 720 719 717 717 716 715 713 712 711 710 708 707 705 703 702 700 698 697 695 693 692 691 690 688 687 687 687 687 687 687 685 685 685 686 686 687 687 688 688 688 687 686 685 684 685 686 687 689
743 742 741 739 738 737 735 734 733 732 731 730 728 727 726 725 724 722 721 720 719 718 717 715 714 713 712 711 709 708 707 706 704 702 700 698 697 695 694 692 691 689 688 687 685 684 683 683 684 684 684 683 683 683 684 684 685 686 686 687 687 687 686 685 684 684 685 686 687
741 740 738 737 736 735 733 732 731 730 729 727 726 725 724 722 721 720 719 717 717 716 714 712 711 710 708 707 706 705 703 702 701 699 697 695 694 692 691 689 688 686 685 684 682 681 680 680 680 681 681 680 681 681 682 682 683 684 685 686 686 686 686 685 685 684 685 686 687
739 737 736 735 734 732 732 730 729 728 727 725 724 722 721 720 719 717 716 715 714 713 712 710 708 707 705 704 703 701 700 699 697 695 693 692 690 688 687 686 685 683 682 680 679 678 677 677 677 677 677 678 678 679 679 680 681 682 683 684 685 685 685 685 684 684 685 686 687
736 735 734 733 732 731 730 728 727 726 724 723 722 720 719 717 716 715 713 712 711 710 709 707 706 704 702 701 700 698 697 695 693 692 690 688 686 685 683 682 681 680 678 677 676 675 674 673 673 674 675 675 676 676 677 678 679 680 681 682 683 684 684 684 684 684 684 685 687
734 733 732 731 730 729 727 726 725 723 722 720 719 717 716 715 713 712 711 710 708 707 706 704 703 701 699 698 697 695 693 691 690 688 686 684 682 681 679 678 677 676 674 673 672 672 671 671 671 671 672 673 673 674 675 676 677 678 679 681 682 683 683 684 684 684 684 685 687
732 731 730 729 728 727 726 724 722 721 719 718 716 715 713 712 711 709 708 707 705 704 702 701 700 698 697 695 693 692 690 688 686 684 682 680 679 677 675 674 673 672 670 669 668 668 668 668 668 668 669 670 671 672 673 674 675 677 678 679 681 681 682 682 683 683 684 685 686
730 729 728 727 726 724 723 722 720 719 717 715 714 712 711 709 708 707 705 704 702 701 699 698 697 695 693 692 690 688 687 685 683 681 678 676 675 673 672 670 668 667 666 665 664 664 664 664 664 665 666 667 669 670 672 673 674 675 677 677 679 680 680 681 682 682 683 684 686
728 726 725 724 723 722 720 719 718 716 715 713 712 710 708 707 706 704 702 701 699 697 696 695 693 692 690 688 687 685 683 681 679 677 675 673 671 669 668 667 665 663 662 661 660 660 659 660 660 661 662 664 666 668 669 671 673 674 675 676 677 678 679 679 680 680 682 683 686
725 724 722 721 720 719 717 717 715 714 712 711 709 708 706 705 703 701 700 698 696 695 693 692 690 688 687 685 683 681 679 677 676 674 672 669 667 665 663 662 661 659 658 657 656 656 655 656 657 657 658 660 662 664 667 669 671 673 674 675 676 677 678 677 677 678 680 683 685
722 721 720 719 717 716 715 714 712 711 710 708 707 705 704 702 700 698 697 695 693 692 690 688 687 685 684 682 679 677 676 674 672 670 668 666 664 662 659 657 656 654 653 652 652 652 651 652 653 654 655 657 659 661 664 666 669 671 672 673 675 676 677 676 676 677 678 682 684
720 719 717 716 715 714 712 711 710 709 707 706 704 703 701 700 698 696 694 692 690 689 687 685 683 682 680 678 676 674 672 671 669 667 665 662 660 658 656 654 652 650 648 647 647 647 647 648 649 651 652 654 657 659 662 664 667 669 671 672 674 675 675 675 675 676 677 679 682
718 717 716 714 713 712 710 709 708 707 705 704 702 700 699 697 695 693 691 689 687 686 684 682 681 679 677 675 673 671 669 667 665 663 661 659 656 654 652 650 647 645 643 642 642 642 642 644 645 647 650 652 655 657 660 662 665 667 669 671 672 673 674 674 674 675 676 678 681
717 715 714 712 711 710 708 707 706 704 703 702 700 698 696 694 692 690 688 686 684 682 681 679 677 675 673 671 669 667 665 663 661 659 657 655 652 650 647 645 643 641 638 637 637 637 638 640 642 645 648 651 654 657 659 661 663 665 667 669 671 672 672 673 673 674 675 677 680
715 713 712 711 709 707 706 705 703 702 701 699 697 695 693 691 689 687 685 683 681 679 677 675 673 671 669 667 666 664 662 659 657 655 653 651 649 646 644 641 638 636 634 633 633 634 636 638 641 643 647 650 653 656 658 660 662 664 666 668 669 671 672 672 673 674 675 677 679
713 712 711 709 707 706 704 703 702 700 698 697 695 693 691 688 686 684 682 680 678 676 674 672 670 667 665 663 662 659 657 655 653 651 649 647 645 643 640 637 635 633 631 631 632 634 636 637 640 643 647 650 653 656 658 660 662 664 666 668 670 671 672 672 673 674 675 677 680
712 711 709 707 706 704 702 701 699 698 696 694 692 690 688 686 683 681 679 677 675 673 671 668 666 664 662 660 658 656 653 651 649 647 645 643 642 639 637 634 633 631 630 631 632 634 636 638 640 643 647 650 653 655 657 660 662 664 667 669 671 672 673 673 674 675 676 678 680
711 709 707 706 704 702 701 699 697 695 693 691 689 687 684 682 680 678 675 673 671 669 667 664 662 660 658 656 654 652 649 647 645 643 641 640 638 636 634 632 631 630 629 631 632 634 636 638 640 643 646 649 652 655 657 660 662 665 667 669 672 673 675 675 676 676 677 679 681
710 708 706 704 702 701 699 697 695 693 691 688 686 683 681 679 677 674 672 670 668 665 662 660 658 657 654 652 650 648 646 644 641 639 637 636 634 632 631 631 630 629 629 630 632 634 635 637 640 643 646 649 652 655 658 660 663 665 668 670 672 674 676 677 677 678 679 680 682
708 707 705 703 701 699 697 695 693 691 688 685 683 681 678 676 673 671 669 667 665 662 658 657 655 652 650 648 646 644 642 640 638 636 634 632 630 629 629 629 628 628 629 630 631 633 635 637 640 643 646 649 652 655 658 661 664 667 669 671 673 675 677 678 679 679 680 682 683
707 706 704 702 700 697 695 693 691 688 685 683 680 677 675 673 670 667 665 664 662 658 655 653 651 649 647 644 642 640 638 636 635 633 630 628 627 626 626 627 627 628 628 629 631 633 635 638 641 643 646 649 652 655 658 662 665 667 670 672 675 677 679 680 681 681 682 683 684
707 705 703 701 698 696 693 691 688 686 683 680 677 674 672 669 667 664 662 660 658 656 652 650 647 644 642 641 639 637 634 632 630 629 626 624 623 623 623 624 626 627 628 629 631 633 635 638 641 643 646 648 652 655 658 662 665 668 671 673 676 679 681 682 682 682 683 684 686
705 704 702 699 697 694 691 688 686 683 681 678 675 672 669 666 663 661 659 657 655 652 649 647 643 641 639 637 636 633 630 628 626 624 622 620 620 620 621 622 625 627 628 629 631 633 636 638 641 644 646 649 652 655 658 662 665 668 672 674 677 680 681 682 682 683 684 686 687
704 702 700 697 695 692 689 686 683 680 678 675 672 669 666 663 660 658 655 653 651 648 646 643 640 637 635 634 632 630 627 625 623 621 620 618 618 618 620 622 624 627 629 630 631 633 636 639 641 644 646 649 652 655 658 662 665 668 672 675 677 679 680 681 682 683 685 687 689